This is the latest recevied weather packets stored in our database for station/object SR4DIG-13. If no packets are shown the sender has not sent any weather packets the latest 10 day(s).
| Time | Temp. | Humidity | Pressure | Rain* | Wind** | Luminosity | Snow |
|---|---|---|---|---|---|---|---|
| 1787822679 | 24.44° C | 46% | 1024.5 hPa | 0 mm | - | - | - |
| 1787822378 | 25.56° C | 45% | 1024.5 hPa | 0 mm | - | - | - |
| 1787822077 | 25° C | 44% | 1024.5 hPa | 0 mm | - | - | - |
| 1787821776 | 26.11° C | 42% | 1024.4 hPa | 0 mm | - | - | - |
| 1787821475 | 26.67° C | 43% | 1024.4 hPa | 0 mm | - | - | - |
| 1787821175 | 26.67° C | 45% | 1024.4 hPa | 0 mm | - | - | - |
| 1787820873 | 26.11° C | 44% | 1024.6 hPa | 0 mm | - | - | - |
| 1787820572 | 25.56° C | 46% | 1024.4 hPa | 0 mm | - | - | - |
| 1787820271 | 26.11° C | 43% | 1024.4 hPa | 0 mm | - | - | - |
| 1787819971 | 26.11° C | 46% | 1024.6 hPa | 0 mm | - | - | - |
| 1787819670 | 25° C | 48% | 1024.4 hPa | 0 mm | - | - | - |
| 1787819081 | 23.89° C | 48% | 1024.6 hPa | 0 mm | - | - | - |
| 1787818780 | 25° C | 47% | 1024.6 hPa | 0 mm | - | - | - |
| 1787818648 | 23.89° C | 55% | 1024.5 hPa | 0 mm | - | - | - |
| 1787818479 | 25° C | 46% | 1024.5 hPa | 0 mm | - | - | - |
| 1787818178 | 25.56° C | 47% | 1024.5 hPa | 0 mm | - | - | - |
| 1787817877 | 26.67° C | 47% | 1024.5 hPa | 0 mm | - | - | - |
| 1787817576 | 26.67° C | 46% | 1024.6 hPa | 0 mm | - | - | - |
| 1787817276 | 26.67° C | 48% | 1024.6 hPa | 0 mm | - | - | - |
| 1787816974 | 26.11° C | 47% | 1024.6 hPa | 0 mm | - | - | - |
| 1787816850 | 22.22° C | 59% | 1024.3 hPa | 0 mm | - | - | - |
| 1787816673 | 26.67° C | 47% | 1024.7 hPa | 0 mm | - | - | - |
| 1787816469 | 22.22° C | 61% | 1024.4 hPa | 0 mm | - | - | - |
| 1787816372 | 26.67° C | 48% | 1024.7 hPa | 0 mm | - | - | - |
| 1787816072 | 26.67° C | 49% | 1024.4 hPa | 0 mm | - | - | - |
* Rain latest hour (hover to see other rain measurements)
** Current wind speed in m/s (hover to see current wind gust speed)